SQ5DCP-1 Weather Reports


Display with metric or nautical units.
time (UTC)temp
F
wind
direction
speed
MPH
gust
MPH
rain 1hr
in
rain 24hr
in
rain mn
in
humidity
%
barometer
mb
20260903160026 72 286 3.0 7.0 0.00 0.00 0.00 52 1016.7
20260903155524 72 288 3.0 7.0 0.00 0.00 0.00 52 1016.7
20260903155022 72 291 3.0 6.0 0.00 0.00 0.00 52 1016.7
20260903154520 72 297 3.0 6.0 0.00 0.00 0.00 51 1016.8
20260903154018 72 298 4.0 8.0 0.00 0.00 0.00 51 1016.8
20260903153516 72 291 4.0 9.0 0.00 0.00 0.00 50 1016.8
20260903153034 72 280 4.0 8.0 0.00 0.00 0.00 51 1016.8
20260903152532 72 286 3.0 8.0 0.00 0.00 0.00 51 1016.9
20260903152031 72 287 4.0 9.0 0.00 0.00 0.00 51 1017.0
20260903151529 72 288 3.0 6.0 0.00 0.00 0.00 51 1017.0
20260903151027 72 287 3.0 8.0 0.00 0.00 0.00 50 1016.9
20260903150525 72 304 2.0 7.0 0.00 0.00 0.00 50 1017.1
20260903150023 72 294 2.0 8.0 0.00 0.00 0.00 51 1017.1
20260903145522 72 291 2.0 4.0 0.00 0.00 0.00 50 1017.2
20260903145020 73 307 4.0 8.0 0.00 0.00 0.00 50 1017.2
20260903144518 73 308 3.0 6.0 0.00 0.00 0.00 50 1017.2
20260903144016 73 300 2.0 6.0 0.00 0.00 0.00 50 1017.2
20260903143534 73 326 2.0 8.0 0.00 0.00 0.00 49 1017.2
20260903143033 73 307 4.0 9.0 0.00 0.00 0.00 48 1017.2
20260903142530 73 291 4.0 8.0 0.00 0.00 0.00 49 1017.2
20260903142028 73 279 4.0 10.0 0.00 0.00 0.00 49 1017.3
20260903141527 73 276 4.0 9.0 0.00 0.00 0.00 50 1017.3
20260903141024 73 291 2.0 6.0 0.00 0.00 0.00 51 1017.4
20260903140523 73 306 4.0 8.0 0.00 0.00 0.00 50 1017.3
20260903140021 73 286 4.0 7.0 0.00 0.00 0.00 50 1017.4
20260903135519 73 287 5.0 10.0 0.00 0.00 0.00 50 1017.5
20260903135049 73 314 4.0 8.0 0.00 0.00 0.00 50 1017.4
20260903135017 73 314 4.0 8.0 0.00 0.00 0.00 50 1017.4
20260903134535 73 282 3.0 8.0 0.00 0.00 0.00 51 1017.4
20260903134033 73 297 3.0 8.0 0.00 0.00 0.00 51 1017.4
20260903133531 73 332 0.0 6.0 0.00 0.00 0.00 51 1017.4
20260903133030 73 281 3.0 7.0 0.00 0.00 0.00 50 1017.5
20260903132527 73 294 4.0 11.0 0.00 0.00 0.00 49 1017.5
20260903132025 73 275 4.0 8.0 0.00 0.00 0.00 50 1017.6
20260903131524 73 280 4.0 11.0 0.00 0.00 0.00 49 1017.6
20260903131022 73 273 6.0 9.0 0.00 0.00 0.00 49 1017.7
20260903130520 73 291 4.0 13.0 0.00 0.00 0.00 49 1017.6
20260903130018 73 289 7.0 14.0 0.00 0.00 0.00 49 1017.7
20260903125517 73 281 5.0 14.0 0.00 0.00 0.00 51 1017.8
20260903125035 73 292 3.0 10.0 0.00 0.00 0.00 52 1017.7
20260903124533 72 324 4.0 8.0 0.00 0.00 0.00 51 1017.9
20260903124031 72 285 4.0 11.0 0.00 0.00 0.00 53 1017.9
20260903123529 72 298 4.0 9.0 0.00 0.00 0.00 53 1017.9
20260903123027 71 283 4.0 8.0 0.00 0.00 0.00 53 1018.0
20260903122525 71 298 4.0 8.0 0.00 0.00 0.00 52 1018.0
20260903122023 72 289 3.0 7.0 0.00 0.00 0.00 52 1018.0
20260903121521 72 318 1.0 7.0 0.00 0.00 0.00 54 1018.0
20260903121019 71 294 2.0 6.0 0.00 0.00 0.00 54 1018.1
20260903120518 72 286 3.0 10.0 0.00 0.00 0.00 54 1018.1
20260903120049 72 290 4.0 7.0 0.00 0.00 0.00 53 1018.1
20260903120016 72 290 4.0 7.0 0.00 0.00 0.00 53 1018.1
20260903115534 72 297 4.0 9.0 0.00 0.00 0.00 53 1018.2
20260903115032 72 323 4.0 8.0 0.00 0.00 0.00 52 1018.2
20260903114530 72 284 4.0 9.0 0.00 0.00 0.00 52 1018.2
20260903114028 72 307 4.0 13.0 0.00 0.00 0.00 52 1018.3
20260903113526 72 285 4.0 8.0 0.00 0.00 0.00 51 1018.4
20260903113024 73 312 5.0 9.0 0.00 0.00 0.00 51 1018.4
20260903112522 73 315 4.0 8.0 0.00 0.00 0.00 51 1018.4
20260903112020 73 267 4.0 10.0 0.00 0.00 0.00 52 1018.4
20260903111518 73 283 2.0 9.0 0.00 0.00 0.00 52 1018.5
20260903111016 73 287 5.0 13.0 0.00 0.00 0.00 52 1018.5
20260903110535 73 289 3.0 9.0 0.00 0.00 0.00 52 1018.5
20260903110033 73 275 4.0 10.0 0.00 0.00 0.00 52 1018.6
20260903105531 73 281 3.0 10.0 0.00 0.00 0.00 53 1018.7
20260903105029 72 283 6.0 10.0 0.00 0.00 0.00 53 1018.7
20260903104528 72 289 4.0 11.0 0.00 0.00 0.00 53 1018.9
20260903104026 72 0 3.0 9.0 0.00 0.00 0.00 53 1018.9
20260903103523 71 2 4.0 11.0 0.00 0.00 0.00 54 1019.0
20260903103022 72 316 6.0 13.0 0.00 0.00 0.00 52 1019.1
20260903102520 72 334 5.0 11.0 0.00 0.00 0.00 53 1019.0
20260903102018 71 297 5.0 10.0 0.00 0.00 0.00 54 1019.1
20260903101516 71 305 3.0 8.0 0.00 0.00 0.00 55 1019.1
20260903101034 71 302 3.0 6.0 0.00 0.00 0.00 56 1019.1
20260903100533 71 264 4.0 11.0 0.00 0.00 0.00 56 1019.1
20260903100031 71 280 5.0 11.0 0.00 0.00 0.00 55 1019.1
20260903095529 71 270 5.0 10.0 0.00 0.00 0.00 57 1019.2
20260903095027 70 297 4.0 10.0 0.00 0.00 0.00 58 1019.3
20260903094525 70 302 3.0 8.0 0.00 0.00 0.00 59 1019.3
20260903094023 70 304 3.0 8.0 0.00 0.00 0.00 58 1019.4
20260903093522 70 279 3.0 7.0 0.00 0.00 0.00 58 1019.4
20260903093020 70 281 4.0 9.0 0.00 0.00 0.00 59 1019.5
20260903092520 69 280 4.0 10.0 0.00 0.00 0.00 61 1019.4
20260903092048 69 297 3.0 4.0 0.00 0.00 0.00 59 1019.5
20260903092016 69 297 3.0 4.0 0.00 0.00 0.00 59 1019.5
20260903091535 69 288 5.0 14.0 0.00 0.00 0.00 60 1019.6
20260903091033 69 310 3.0 7.0 0.00 0.00 0.00 60 1019.5
20260903090531 68 283 3.0 7.0 0.00 0.00 0.00 61 1019.5
20260903090029 68 296 2.0 6.0 0.00 0.00 0.00 62 1019.5
20260903085528 68 308 3.0 8.0 0.00 0.00 0.00 63 1019.6
20260903085025 68 285 3.0 8.0 0.00 0.00 0.00 64 1019.6
20260903084523 67 313 3.0 9.0 0.00 0.00 0.00 63 1019.6
20260903084022 67 286 2.0 7.0 0.00 0.00 0.00 65 1019.7
20260903083520 67 289 3.0 6.0 0.00 0.00 0.00 65 1019.6
20260903083019 67 289 3.0 9.0 0.00 0.00 0.00 64 1019.7
20260903082516 66 289 4.0 10.0 0.00 0.00 0.00 67 1019.7
20260903082035 66 323 1.0 6.0 0.00 0.00 0.00 67 1019.6
20260903081532 66 341 4.0 9.0 0.00 0.00 0.00 67 1019.6
20260903081031 65 310 2.0 6.0 0.00 0.00 0.00 68 1019.6
20260903080529 65 301 5.0 9.0 0.00 0.00 0.00 68 1019.6
20260903080027 65 296 4.0 7.0 0.00 0.00 0.00 69 1019.6
20260903075525 65 279 5.0 9.0 0.00 0.00 0.00 71 1019.6
20260903075023 64 279 4.0 8.0 0.00 0.00 0.00 72 1019.5
20260903074522 64 284 3.0 7.0 0.00 0.00 0.00 71 1019.5
20260903074020 64 295 3.0 7.0 0.00 0.00 0.00 73 1019.4
20260903073518 63 281 4.0 8.0 0.00 0.00 0.00 73 1019.4
20260903073048 63 284 4.0 8.0 0.00 0.00 0.00 73 1019.5
20260903073016 63 284 4.0 8.0 0.00 0.00 0.00 73 1019.5
20260903072535 63 280 2.0 7.0 0.00 0.00 0.00 74 1019.5
20260903072033 63 299 4.0 7.0 0.00 0.00 0.00 74 1019.6
20260903071531 62 299 5.0 10.0 0.00 0.00 0.00 75 1019.5
20260903071029 62 297 3.0 7.0 0.00 0.00 0.00 76 1019.5
20260903070527 62 283 3.0 7.0 0.00 0.00 0.00 77 1019.5
20260903070025 62 295 3.0 8.0 0.00 0.00 0.00 78 1019.4
20260903065523 61 270 3.0 8.0 0.00 0.00 0.00 79 1019.4
20260903065022 61 281 4.0 8.0 0.00 0.00 0.00 80 1019.5
20260903064520 61 290 3.0 9.0 0.00 0.00 0.00 80 1019.5
20260903064049 60 300 1.0 6.0 0.00 0.00 0.00 81 1019.5
20260903064018 60 300 1.0 6.0 0.00 0.00 0.00 81 1019.5
20260903063516 60 274 1.0 4.0 0.00 0.00 0.00 82 1019.5
20260903063034 60 293 1.0 4.0 0.00 0.00 0.00 82 1019.4
20260903062533 59 287 3.0 7.0 0.00 0.00 0.00 82 1019.5
20260903062030 59 280 3.0 7.0 0.00 0.00 0.00 83 1019.4
20260903061529 59 290 4.0 9.0 0.00 0.00 0.00 83 1019.5
20260903061027 59 278 3.0 7.0 0.00 0.00 0.00 84 1019.5
20260903060526 58 283 3.0 8.0 0.00 0.00 0.00 84 1019.5
20260903060023 58 280 3.0 8.0 0.00 0.00 0.00 84 1019.4
20260903055521 58 279 3.0 7.0 0.00 0.00 0.00 84 1019.4
20260903055020 57 282 3.0 6.0 0.00 0.00 0.00 84 1019.3
20260903054518 57 278 2.0 6.0 0.00 0.00 0.00 84 1019.3
20260903054048 57 281 2.0 4.0 0.00 0.00 0.00 84 1019.4
20260903054015 57 281 2.0 4.0 0.00 0.00 0.00 84 1019.4
20260903053534 57 272 3.0 6.0 0.00 0.00 0.00 84 1019.4
20260903053032 57 291 2.0 6.0 0.00 0.00 0.00 84 1019.4
20260903052530 56 291 2.0 6.0 0.00 0.00 0.00 84 1019.4
20260903052028 56 287 2.0 3.0 0.00 0.00 0.00 84 1019.4
20260903051526 56 284 3.0 7.0 0.00 0.00 0.00 84 1019.3
20260903051025 55 286 2.0 6.0 0.00 0.00 0.00 84 1019.3
20260903050523 55 278 2.0 4.0 0.00 0.00 0.00 84 1019.3
20260903050021 55 283 1.0 4.0 0.00 0.00 0.00 83 1019.4
20260903045520 54 286 1.0 3.0 0.00 0.00 0.00 83 1019.4
20260903045049 54 271 1.0 4.0 0.00 0.00 0.00 82 1019.4
20260903045017 54 271 1.0 4.0 0.00 0.00 0.00 82 1019.4
20260903044535 54 0.0 0.0 0.00 0.00 0.00 82 1019.3
20260903044034 54 0.0 0.0 0.00 0.00 0.00 82 1019.4
20260903043532 54 0.0 0.0 0.00 0.00 0.00 82 1019.4
20260903043030 54 0.0 0.0 0.00 0.00 0.00 82 1019.3
20260903042528 54 0.0 0.0 0.00 0.00 0.00 82 1019.4
20260903042026 54 0.0 0.0 0.00 0.00 0.00 81 1019.3
20260903041525 54 0.0 0.0 0.00 0.00 0.00 81 1019.3
20260903041022 54 0.0 0.0 0.00 0.00 0.00 81 1019.3
20260903040521 54 0.0 0.0 0.00 0.00 0.00 81 1019.3
20260903040019 54 0.0 0.0 0.00 0.00 0.00 81 1019.4
20260903035517 54 0.0 0.0 0.00 0.00 0.00 81 1019.4
20260903035035 54 0.0 0.0 0.00 0.00 0.00 81 1019.4
20260903034533 54 0.0 0.0 0.00 0.00 0.00 81 1019.5
20260903034031 54 0.0 0.0 0.00 0.00 0.00 81 1019.5
20260903033529 54 0.0 0.0 0.00 0.00 0.00 81 1019.4
20260903033028 54 0.0 0.0 0.00 0.00 0.00 81 1019.4
20260903032526 54 0.0 0.0 0.00 0.00 0.00 81 1019.3
20260903032024 54 0.0 0.0 0.00 0.00 0.00 81 1019.2
20260903031522 55 0.0 0.0 0.00 0.00 0.00 81 1019.4
20260903031020 55 0.0 0.0 0.00 0.00 0.00 81 1019.2
20260903030518 55 0.0 0.0 0.00 0.00 0.00 81 1019.3
20260903030049 55 0.0 0.0 0.00 0.00 0.00 81 1019.3
20260903030016 55 0.0 0.0 0.00 0.00 0.00 81 1019.3
20260903025535 55 0.0 0.0 0.00 0.00 0.00 81 1019.2
20260903025033 55 0.0 0.0 0.00 0.00 0.00 81 1019.3
20260903024531 55 0.0 0.0 0.00 0.00 0.00 81 1019.2
20260903024129 55 0.0 0.0 0.00 0.00 0.00 81 1019.3
20260903024029 55 0.0 0.0 0.00 0.00 0.00 81 1019.3
20260903023527 55 0.0 0.0 0.00 0.00 0.00 81 1019.3
20260903023025 55 0.0 0.0 0.00 0.00 0.00 81 1019.3
20260903022523 55 0.0 0.0 0.00 0.00 0.00 81 1019.4
20260903022022 55 0.0 0.0 0.00 0.00 0.00 81 1019.4
20260903021519 55 0.0 0.0 0.00 0.00 0.00 81 1019.4
20260903021132 55 0.0 0.0 0.00 0.00 0.00 81 1019.5
20260903021017 55 0.0 0.0 0.00 0.00 0.00 81 1019.5
20260903020516 56 0.0 0.0 0.00 0.00 0.00 81 1019.5
20260903020230 56 0.0 0.0 0.00 0.00 0.00 81 1019.5
20260903020034 56 0.0 0.0 0.00 0.00 0.00 81 1019.5
20260903015532 56 0.0 0.0 0.00 0.00 0.00 81 1019.5
20260903015030 56 0.0 0.0 0.00 0.00 0.00 81 1019.6
20260903014528 56 0.0 0.0 0.00 0.00 0.00 81 1019.6
20260903014026 56 0.0 0.0 0.00 0.00 0.00 81 1019.7
20260903013525 56 0.0 0.0 0.00 0.00 0.00 81 1019.6
20260903013023 56 0.0 0.0 0.00 0.00 0.00 80 1019.5
20260903012521 56 0.0 0.0 0.00 0.00 0.00 80 1019.6
20260903012019 56 0.0 0.0 0.00 0.00 0.00 80 1019.5
20260903011518 56 0.0 0.0 0.00 0.00 0.00 80 1019.6
20260903011046 56 0.0 0.0 0.00 0.00 0.00 80 1019.5
20260903011015 56 0.0 0.0 0.00 0.00 0.00 80 1019.5
20260903010534 56 0.0 0.0 0.00 0.00 0.00 80 1019.7
20260903010032 56 0.0 0.0 0.00 0.00 0.00 80 1019.6
20260903005530 56 0.0 0.0 0.00 0.00 0.00 80 1019.7
20260903005029 56 0.0 0.0 0.00 0.00 0.00 80 1019.7
20260903004526 56 0.0 0.0 0.00 0.00 0.00 80 1019.6
20260903004024 56 0.0 0.0 0.00 0.00 0.00 80 1019.6
20260903003522 56 0.0 0.0 0.00 0.00 0.00 80 1019.6
20260903003051 56 0.0 0.0 0.00 0.00 0.00 80 1019.6
20260903003020 56 0.0 0.0 0.00 0.00 0.00 80 1019.6
20260903002519 56 0.0 0.0 0.00 0.00 0.00 80 1019.6
20260903002017 56 0.0 0.0 0.00 0.00 0.00 80 1019.6
20260903001535 56 0.0 0.0 0.00 0.00 0.00 79 1019.6
20260903001033 56 0.0 0.0 0.00 0.00 0.00 79 1019.6
20260903000531 56 0.0 0.0 0.00 0.00 0.00 79 1019.7
20260903000029 56 0.0 0.0 0.00 0.00 0.00 79 1019.6
20260902235527 56 0.0 0.0 0.00 0.00 0.00 79 1019.6
20260902235025 56 0.0 0.0 0.00 0.00 0.00 79 1019.6
20260902234524 56 0.0 0.0 0.00 0.00 0.00 79 1019.7
20260902234022 56 0.0 0.0 0.00 0.00 0.00 78 1019.7
20260902233520 56 0.0 0.0 0.00 0.00 0.00 78 1019.8
20260902233049 56 0.0 0.0 0.00 0.00 0.00 78 1019.9
20260902233018 56 0.0 0.0 0.00 0.00 0.00 78 1019.9
20260902232516 57 0.0 0.0 0.00 0.00 0.00 78 1019.9
20260902232130 57 0.0 0.0 0.00 0.00 0.00 78 1019.8
20260902232035 57 0.0 0.0 0.00 0.00 0.00 78 1019.8
20260902231532 57 0.0 0.0 0.00 0.00 0.00 78 1019.8
20260902231031 57 0.0 0.0 0.00 0.00 0.00 78 1019.8
20260902230528 57 0.0 0.0 0.00 0.00 0.00 78 1019.8
20260902230027 57 0.0 0.0 0.00 0.00 0.00 78 1019.7
20260902225525 57 0.0 0.0 0.00 0.00 0.00 78 1019.8
20260902225023 57 0.0 0.0 0.00 0.00 0.00 78 1019.9
20260902224521 57 0.0 0.0 0.00 0.00 0.00 77 1019.9
20260902224020 57 0.0 0.0 0.00 0.00 0.00 77 1019.8
20260902223517 57 0.0 0.0 0.00 0.00 0.00 77 1019.9
20260902223048 58 0.0 0.0 0.00 0.00 0.00 77 1019.8
20260902223015 58 0.0 0.0 0.00 0.00 0.00 77 1019.8
20260902222534 58 0.0 0.0 0.00 0.00 0.00 77 1019.8
20260902222032 58 0.0 0.0 0.00 0.00 0.00 77 1020.0
20260902221530 58 0.0 0.0 0.00 0.00 0.00 77 1020.0
20260902221029 58 0.0 0.0 0.00 0.00 0.00 77 1020.1
20260902220526 58 0.0 0.0 0.00 0.00 0.00 77 1020.1
20260902220024 59 0.0 0.0 0.00 0.00 0.00 77 1020.0
20260902215522 59 0.0 0.0 0.00 0.00 0.00 77 1020.0
20260902215020 59 0.0 0.0 0.00 0.00 0.00 77 1020.1
20260902214518 59 0.0 0.0 0.00 0.00 0.00 77 1020.0
20260902214048 59 0.0 0.0 0.00 0.00 0.00 77 1020.0
20260902214016 59 0.0 0.0 0.00 0.00 0.00 77 1020.0
20260902213534 59 0.0 0.0 0.00 0.00 0.00 77 1020.0
20260902213033 59 0.0 0.0 0.00 0.00 0.00 77 1019.9
20260902212531 59 0.0 0.0 0.00 0.00 0.00 76 1019.9
20260902212029 59 0.0 0.0 0.00 0.00 0.00 76 1019.9
20260902211527 59 0.0 0.0 0.00 0.00 0.00 76 1020.0
20260902211043 60 0.0 0.0 0.00 0.00 0.00 76 1020.0
20260902211026 60 0.0 0.0 0.00 0.00 0.00 76 1020.1
20260902210523 60 0.0 0.0 0.00 0.00 0.00 76 1020.0
20260902210022 60 0.0 0.0 0.00 0.00 0.00 76 1020.0
20260902205519 60 0.0 0.0 0.00 0.00 0.00 76 1020.0
20260902205049 60 0.0 0.0 0.00 0.00 0.00 75 1020.0
20260902205018 60 0.0 0.0 0.00 0.00 0.00 75 1020.0
20260902204516 60 0.0 0.0 0.00 0.00 0.00 75 1020.0
20260902204034 60 0.0 0.0 0.00 0.00 0.00 75 1020.0
20260902203532 60 0.0 0.0 0.00 0.00 0.00 75 1020.0
20260902203031 61 0.0 0.0 0.00 0.00 0.00 75 1020.0
20260902202529 61 0.0 0.0 0.00 0.00 0.00 75 1019.8
20260902202027 61 0.0 0.0 0.00 0.00 0.00 75 1020.0
20260902201525 61 0.0 0.0 0.00 0.00 0.00 75 1020.1
20260902201023 61 0.0 0.0 0.00 0.00 0.00 75 1020.0
20260902200521 61 0.0 0.0 0.00 0.00 0.00 75 1020.1
20260902200020 61 0.0 0.0 0.00 0.00 0.00 74 1020.0
20260902195517 61 0.0 0.0 0.00 0.00 0.00 74 1020.1
20260902195035 62 0.0 0.0 0.00 0.00 0.00 74 1020.0
20260902194534 62 0.0 0.0 0.00 0.00 0.00 74 1020.1
20260902194032 62 0.0 0.0 0.00 0.00 0.00 74 1020.0
20260902193530 62 0.0 0.0 0.00 0.00 0.00 74 1020.1
20260902193028 62 0.0 0.0 0.00 0.00 0.00 73 1020.1
20260902192526 62 0.0 0.0 0.00 0.00 0.00 73 1020.1
20260902192024 63 0.0 0.0 0.00 0.00 0.00 73 1020.1
20260902191522 63 0.0 0.0 0.00 0.00 0.00 73 1020.2
20260902191020 63 0.0 0.0 0.00 0.00 0.00 72 1020.2
20260902190518 63 0.0 0.0 0.00 0.00 0.00 72 1020.1
20260902190017 64 0.0 0.0 0.00 0.00 0.00 72 1020.2
20260902185535 64 0.0 0.0 0.00 0.00 0.00 72 1020.1
20260902185033 64 0.0 0.0 0.00 0.00 0.00 72 1020.2
20260902184531 64 0.0 0.0 0.00 0.00 0.00 71 1020.0
20260902184029 64 0.0 0.0 0.00 0.00 0.00 71 1020.1
20260902183528 65 0.0 0.0 0.00 0.00 0.00 71 1020.1
20260902183026 65 0.0 0.0 0.00 0.00 0.00 70 1020.1
20260902182524 65 0.0 0.0 0.00 0.00 0.00 70 1020.0
20260902182022 65 0.0 0.0 0.00 0.00 0.00 70 1020.0
20260902181520 65 0.0 0.0 0.00 0.00 0.00 70 1020.0
20260902181049 66 0.0 0.0 0.00 0.00 0.00 69 1019.9
20260902181018 66 0.0 0.0 0.00 0.00 0.00 69 1019.9
20260902180516 66 0.0 0.0 0.00 0.00 0.00 69 1019.8
20260902180034 66 0.0 0.0 0.00 0.00 0.00 69 1019.9
20260902175532 66 0.0 0.0 0.00 0.00 0.00 69 1019.8
20260902175030 67 0.0 0.0 0.00 0.00 0.00 68 1019.7
20260902174529 67 0.0 0.0 0.00 0.00 0.00 68 1019.7
20260902174026 67 282 0.0 1.0 0.00 0.00 0.00 68 1019.6
20260902173525 67 0.0 0.0 0.00 0.00 0.00 68 1019.7
20260902173022 67 0.0 0.0 0.00 0.00 0.00 67 1019.6
20260902172521 68 290 1.0 3.0 0.00 0.00 0.00 67 1019.5
20260902172019 68 285 1.0 3.0 0.00 0.00 0.00 67 1019.5
20260902171517 68 280 2.0 4.0 0.00 0.00 0.00 66 1019.5
20260902171035 68 277 2.0 3.0 0.00 0.00 0.00 66 1019.6
20260902170533 68 292 1.0 2.0 0.00 0.00 0.00 65 1019.5
20260902170031 68 0.0 0.0 0.00 0.00 0.00 65 1019.4
20260902165529 69 286 1.0 2.0 0.00 0.00 0.00 65 1019.4
20260902165027 69 282 2.0 4.0 0.00 0.00 0.00 65 1019.4
20260902164525 69 282 2.0 4.0 0.00 0.00 0.00 65 1019.4
20260902164024 69 284 2.0 7.0 0.00 0.00 0.00 64 1019.4
20260902163522 69 294 3.0 6.0 0.00 0.00 0.00 64 1019.4
20260902163020 69 288 2.0 6.0 0.00 0.00 0.00 64 1019.4
20260902162518 69 299 3.0 9.0 0.00 0.00 0.00 64 1019.2
20260902162049 69 280 2.0 3.0 0.00 0.00 0.00 63 1019.2
20260902162016 69 280 2.0 3.0 0.00 0.00 0.00 63 1019.2
20260902161535 70 268 2.0 3.0 0.00 0.00 0.00 63 1019.1
20260902161033 70 283 2.0 6.0 0.00 0.00 0.00 63 1019.2
20260902160531 70 264 2.0 6.0 0.00 0.00 0.00 62 1019.3